Retour au catalogue

KUIPER-00090

ActifCommunicationsLEO
NORAD 64835·PAYLOAD·🇺🇸 United States

Lancé Jul 16, 2025 depuis Cape Canaveral Space Force Station

Loading…

Prochains Passages (prochaines 24 heures)

TLE

FraisSource: CelesTrak SupGP

Époque: Sep 15, 2026, 02:21 UTC

1 64835C 25151V   26258.09802083  .00002932  00000+0  38384-3 0  2585
2 64835  51.8969 160.5280 0001013  97.1810 229.8356 14.79928528    10

Suivez KUIPER-00090 en temps réel avec AllMySat

Download on the App Store